Maysville, GA

12:09 AM EST on January 21, 2017 (GMT -0500)
Jefferson

Weather History for K19A - January, 2014

Change the Weather History Date:

Monday, January 6, 2014

  Actual Average (KWDR) Record (KWDR)
Temperature  
Mean Temperature 30 °F -  
Max Temperature 46 °F 52 °F 68 °F (2007)
Min Temperature 14 °F 32 °F 11 °F (1969)
Degree Days  
Heating Degree Days 35    
Moisture  
Dew Point 11 °F    
Average Humidity 50    
Maximum Humidity 100    
Minimum Humidity 22    
Precipitation  
Precipitation 0.00 in - - ()
Sea Level Pressure  
Sea Level Pressure 30.06 in    
Wind  
Wind Speed 13 mph (WNW)    
Max Wind Speed 25 mph    
Max Gust Speed 36 mph    
Visibility 9 miles    
Events Rain    
Averages and records for this station are not official NWS values.
T = Trace of Precipitation, MM = Missing Value Source: NWS Daily Summary

Daily Weather History Graph

Daily Weather History Graph

Search for Another Location

Airport or City:

Trip Planner

Search our weather history database for the weather conditions in past years. The results will help you decide how hot, cold, wet, or windy it might be!

Date:

Astronomy

Jan. 06, 2014 Rise Set
Actual Time 7:40 AM EST 5:39 PM EST
Civil Twilight 7:13 AM EST 6:07 PM EST
Nautical Twilight 6:42 AM EST 6:38 PM EST
Astronomical Twilight 6:11 AM EST 7:08 PM EST
Moon 11:12 AM EST (1/6) 11:53 PM EST (1/6)
Length of Visible Light 10h 54m
Length of Day
9h 58m
Waxing Crescent, 34% of the Moon is Illuminated
Jan 6
Waxing Crescent
Jan 7
First Quarter
Jan 15
Full
Jan 24
Last Quarter
Jan 30
New

Hourly Weather History & Observations

Time (EST) Temp. Windchill Dew Point Humidity Pressure Visibility Wind Dir Wind Speed Gust Speed Precip Events Conditions
12:15 AM 42.8 °F - 42.8 °F 100% 29.74 in 0.5 mi Calm Calm - N/A Rain Rain
12:35 AM 42.8 °F 41.1 °F 42.8 °F 100% 29.73 in 0.8 mi South 3.5 mph - N/A Rain Rain
12:55 AM 44.6 °F - 44.6 °F 100% 29.72 in 1.0 mi Calm Calm - N/A Rain Rain
1:15 AM 44.6 °F 40.2 °F 44.6 °F 100% 29.76 in 2.5 mi WNW 8.1 mph - N/A Rain Rain
1:35 AM 44.6 °F 40.2 °F 44.6 °F 100% 29.76 in 5.0 mi WNW 8.1 mph - N/A   Mist
1:55 AM 46.4 °F 41.5 °F 44.6 °F 93% 29.78 in 10.0 mi WNW 10.4 mph 19.6 mph N/A Rain Light Rain
2:15 AM 46.4 °F 41.5 °F 44.6 °F 93% 29.78 in 7.0 mi West 10.4 mph - N/A   Light Drizzle
2:35 AM 46.4 °F 41.5 °F 42.8 °F 87% 29.78 in 10.0 mi WNW 10.4 mph - N/A   Unknown
2:55 AM 44.6 °F 37.4 °F 41.0 °F 87% 29.79 in 10.0 mi WNW 16.1 mph 26.5 mph N/A   Unknown
3:15 AM 42.8 °F 34.5 °F 33.8 °F 70% 29.80 in 10.0 mi WNW 18.4 mph 31.1 mph N/A   Unknown
3:35 AM 42.8 °F 34.8 °F 33.8 °F 70% 29.80 in 10.0 mi West 17.3 mph 21.9 mph N/A   Unknown
3:55 AM 41.0 °F 33.9 °F 32.0 °F 70% 29.81 in 10.0 mi WNW 12.7 mph 23.0 mph N/A   Unknown
4:15 AM 37.4 °F 28.9 °F 32.0 °F 81% 29.82 in 10.0 mi WNW 13.8 mph 23.0 mph N/A   Unknown
4:35 AM 37.4 °F 28.9 °F 30.2 °F 75% 29.84 in 10.0 mi WNW 13.8 mph 24.2 mph N/A   Unknown
4:55 AM 35.6 °F 26.2 °F 30.2 °F 81% 29.84 in 10.0 mi WNW 15.0 mph 24.2 mph N/A   Unknown
5:15 AM 35.6 °F 26.6 °F 28.4 °F 75% 29.85 in 10.0 mi WNW 13.8 mph 24.2 mph N/A   Unknown
5:35 AM 33.8 °F 23.9 °F 26.6 °F 75% 29.86 in 10.0 mi WNW 15.0 mph 25.3 mph N/A   Unknown
5:55 AM 33.8 °F 23.9 °F 26.6 °F 75% 29.87 in 10.0 mi WNW 15.0 mph 24.2 mph N/A   Unknown
6:15 AM 33.8 °F 23.9 °F 26.6 °F 75% 29.89 in 10.0 mi WNW 15.0 mph 21.9 mph N/A   Unknown
6:35 AM 33.8 °F 23.2 °F 21.2 °F 60% 29.90 in 10.0 mi NW 17.3 mph 25.3 mph N/A   Unknown
6:55 AM 33.8 °F 21.0 °F 19.4 °F 56% 29.91 in 10.0 mi NW 25.3 mph 35.7 mph N/A   Unknown
7:15 AM 32.0 °F 18.6 °F 19.4 °F 60% 29.92 in 10.0 mi NW 25.3 mph 32.2 mph N/A   Unknown
7:35 AM 32.0 °F 20.5 °F 17.6 °F 55% 29.95 in 10.0 mi NW 18.4 mph 25.3 mph N/A   Unknown
7:55 AM 32.0 °F 20.1 °F 15.8 °F 51% 29.97 in 10.0 mi NW 19.6 mph 28.8 mph N/A   Unknown
8:15 AM 32.0 °F 19.2 °F 15.8 °F 51% 29.99 in 10.0 mi NW 23.0 mph 29.9 mph N/A   Unknown
8:35 AM 32.0 °F 20.8 °F 15.8 °F 51% 30.01 in 10.0 mi WNW 17.3 mph - N/A   Unknown
8:55 AM 30.2 °F 19.8 °F 15.8 °F 55% 30.02 in 10.0 mi WNW 13.8 mph 24.2 mph N/A   Unknown
9:15 AM 30.2 °F 18.5 °F 14.0 °F 51% 30.04 in 10.0 mi WNW 17.3 mph 24.2 mph N/A   Unknown
9:35 AM 30.2 °F 18.1 °F 14.0 °F 51% 30.06 in 10.0 mi WNW 18.4 mph 24.2 mph N/A   Unknown
9:55 AM 30.2 °F 18.9 °F 14.0 °F 51% 30.07 in 10.0 mi WNW 16.1 mph 25.3 mph N/A   Unknown
10:15 AM 30.2 °F 18.9 °F 14.0 °F 51% 30.08 in 10.0 mi WNW 16.1 mph 25.3 mph N/A   Unknown
10:35 AM 32.0 °F 20.5 °F 14.0 °F 48% 30.08 in 10.0 mi NW 18.4 mph 24.2 mph N/A   Unknown
10:55 AM 32.0 °F 21.2 °F 14.0 °F 48% 30.09 in 10.0 mi WNW 16.1 mph 21.9 mph N/A   Unknown
11:15 AM 32.0 °F 20.5 °F 12.2 °F 44% 30.08 in 10.0 mi NW 18.4 mph 25.3 mph N/A   Unknown
11:35 AM 32.0 °F 20.8 °F 12.2 °F 44% 30.09 in 10.0 mi WNW 17.3 mph 26.5 mph N/A   Unknown
11:55 AM 32.0 °F 21.2 °F 12.2 °F 44% 30.08 in 10.0 mi WNW 16.1 mph 21.9 mph N/A   Unknown
12:15 PM 32.0 °F 20.5 °F 12.2 °F 44% 30.08 in 10.0 mi WNW 18.4 mph 25.3 mph N/A   Unknown
12:35 PM 32.0 °F 21.2 °F 10.4 °F 41% 30.08 in 10.0 mi WNW 16.1 mph 31.1 mph N/A   Unknown
12:55 PM 32.0 °F 19.8 °F 10.4 °F 41% 30.08 in 10.0 mi WNW 20.7 mph 26.5 mph N/A   Unknown
1:15 PM 30.2 °F 17.1 °F 6.8 °F 37% 30.08 in 10.0 mi WNW 21.9 mph 29.9 mph N/A   Unknown
1:35 PM 32.0 °F 19.8 °F 3.2 °F 30% 30.08 in 10.0 mi WNW 20.7 mph 31.1 mph N/A   Unknown
1:55 PM 30.2 °F 17.8 °F -0.4 °F 27% 30.09 in 10.0 mi WNW 19.6 mph 31.1 mph N/A   Unknown
2:15 PM 30.2 °F 18.9 °F -0.4 °F 27% 30.09 in 10.0 mi West 16.1 mph 29.9 mph N/A   Unknown
2:35 PM 30.2 °F 17.1 °F -0.4 °F 27% 30.11 in 10.0 mi WNW 21.9 mph 29.9 mph N/A   Unknown
2:55 PM 30.2 °F 17.4 °F -2.2 °F 25% 30.11 in 10.0 mi WNW 20.7 mph 28.8 mph N/A   Unknown
3:15 PM 28.4 °F 14.4 °F -4.0 °F 25% 30.13 in 10.0 mi WNW 23.0 mph 33.4 mph N/A   Unknown
3:35 PM 26.6 °F 12.4 °F -2.2 °F 29% 30.14 in 10.0 mi WNW 21.9 mph 33.4 mph N/A   Unknown
3:55 PM 26.6 °F 11.7 °F -4.0 °F 26% 30.16 in 10.0 mi NW 24.2 mph 32.2 mph N/A   Unknown
4:15 PM 24.8 °F 10.3 °F -5.8 °F 26% 30.17 in 10.0 mi West 20.7 mph 28.8 mph N/A   Unknown
4:35 PM 23.0 °F 10.1 °F -9.4 °F 24% 30.18 in 10.0 mi WNW 15.0 mph 29.9 mph N/A   Unknown
4:55 PM 23.0 °F 8.7 °F -7.6 °F 26% 30.19 in 10.0 mi NW 18.4 mph 27.6 mph N/A   Unknown
5:15 PM 23.0 °F 8.3 °F -9.4 °F 24% 30.19 in 10.0 mi WNW 19.6 mph 24.2 mph N/A   Unknown
5:35 PM 21.2 °F 7.3 °F -7.6 °F 28% 30.21 in 10.0 mi WNW 16.1 mph - N/A   Unknown
5:55 PM 21.2 °F 8.3 °F -13.0 °F 22% 30.22 in 10.0 mi NW 13.8 mph 25.3 mph N/A   Unknown
6:15 PM 19.4 °F 5.5 °F -9.4 °F 28% 30.23 in 10.0 mi WNW 15.0 mph 20.7 mph N/A   Unknown
6:35 PM 19.4 °F 6.0 °F -7.6 °F 30% 30.25 in 10.0 mi NW 13.8 mph 23.0 mph N/A   Unknown
6:55 PM 19.4 °F 5.5 °F -9.4 °F 28% 30.26 in 10.0 mi WNW 15.0 mph 19.6 mph N/A   Unknown
7:15 PM 19.4 °F 7.2 °F -7.6 °F 30% 30.28 in 10.0 mi WNW 11.5 mph 20.7 mph N/A   Unknown
7:35 PM 17.6 °F 3.7 °F -9.4 °F 30% 30.29 in 10.0 mi NW 13.8 mph 20.7 mph N/A   Unknown
7:55 PM 17.6 °F 2.2 °F -9.4 °F 30% 30.31 in 10.0 mi NW 17.3 mph 21.9 mph N/A   Unknown
8:15 PM 17.6 °F 2.2 °F -9.4 °F 30% 30.31 in 10.0 mi NW 17.3 mph 28.8 mph N/A   Unknown
8:35 PM 17.6 °F 3.2 °F -9.4 °F 30% 30.32 in 10.0 mi NW 15.0 mph 23.0 mph N/A   Unknown
8:55 PM 17.6 °F 1.7 °F -9.4 °F 30% 30.33 in 10.0 mi NW 18.4 mph 26.5 mph N/A   Unknown
9:15 PM 15.8 °F 0.3 °F -9.4 °F 32% 30.34 in 10.0 mi NW 16.1 mph 25.3 mph N/A   Unknown
9:35 PM 15.8 °F 0.9 °F -9.4 °F 32% 30.34 in 10.0 mi NW 15.0 mph 26.5 mph N/A   Unknown
9:55 PM 15.8 °F 0.9 °F -9.4 °F 32% 30.34 in 10.0 mi WNW 15.0 mph 24.2 mph N/A   Unknown
10:15 PM 14.0 °F -0.2 °F -9.4 °F 35% 30.34 in 10.0 mi WNW 12.7 mph 20.7 mph N/A   Unknown
10:35 PM 14.0 °F -0.8 °F -9.4 °F 35% 30.35 in 10.0 mi NW 13.8 mph 20.7 mph N/A   Unknown
10:55 PM 14.0 °F -3.9 °F -9.4 °F 35% 30.34 in 10.0 mi NW 20.7 mph - N/A   Unknown
11:15 PM 14.0 °F -0.2 °F -7.6 °F 38% 30.35 in 10.0 mi WNW 12.7 mph - N/A   Unknown
11:35 PM 14.0 °F -2.5 °F -7.6 °F 38% 30.34 in 10.0 mi WNW 17.3 mph 20.7 mph N/A   Unknown
11:55 PM 14.0 °F -0.8 °F -7.6 °F 38% 30.35 in 10.0 mi WNW 13.8 mph 19.6 mph N/A   Unknown